| time (UTC) | temp F | wind direction | speed MPH | gust MPH | rain 1hr in | rain 24hr in | rain mn in | humidity % | barometer mb |
| 20260901224731 | 87 | 271 | 0.0 | 0.0 | 0.00 | 0.08 | 0.00 | 27 | 1015.7 |
| 20260901224231 | 87 | 271 | 0.0 | 0.0 | 0.00 | 0.08 | 0.00 | 29 | 1015.7 |
| 20260901223730 | 87 | 0 | 0.0 | 0.0 | 0.00 | 0.08 | 0.00 | 28 | 1015.7 |
| 20260901222225 | 87 | 283 | 0.0 | 0.0 | 0.00 | 0.08 | 0.00 | 30 | 1015.8 |
| 20260901221723 | 87 | 275 | 0.0 | 0.0 | 0.00 | 0.08 | 0.00 | 29 | 1015.8 |
| 20260901221221 | 86 | 275 | 0.0 | 0.0 | 0.00 | 0.08 | 0.00 | 36 | 1015.8 |
| 20260901220723 | 86 | 275 | 0.0 | 0.0 | 0.00 | 0.08 | 0.00 | 33 | 1015.9 |
| 20260901220218 | 86 | 275 | 0.0 | 0.0 | 0.00 | 0.08 | 0.00 | 30 | 1015.9 |
| 20260901215717 | 86 | 275 | 0.0 | 0.0 | 0.00 | 0.08 | 0.00 | 30 | 1016.0 |
| 20260901215217 | 87 | 275 | 0.0 | 0.0 | 0.00 | 0.08 | 0.00 | 31 | 1016.0 |
| 20260901214717 | 86 | 223 | 0.0 | 0.0 | 0.00 | 0.08 | 0.00 | 29 | 1016.0 |
| 20260901214215 | 86 | 221 | 0.0 | 0.0 | 0.00 | 0.08 | 0.00 | 29 | 1016.0 |
| 20260901213211 | 87 | 219 | 0.0 | 0.0 | 0.00 | 0.08 | 0.00 | 28 | 1016.1 |
| 20260901212711 | 88 | 209 | 0.0 | 0.0 | 0.00 | 0.08 | 0.00 | 29 | 1016.1 |
| 20260901212209 | 88 | 209 | 0.0 | 0.0 | 0.00 | 0.08 | 0.00 | 31 | 1016.1 |
| 20260901211205 | 87 | 209 | 0.0 | 0.0 | 0.00 | 0.08 | 0.00 | 32 | 1016.1 |
| 20260901210704 | 87 | 210 | 0.0 | 0.0 | 0.00 | 0.08 | 0.00 | 33 | 1016.2 |
| 20260901210205 | 86 | 210 | 0.0 | 0.0 | 0.00 | 0.08 | 0.00 | 33 | 1016.4 |
| 20260901205704 | 84 | 210 | 0.0 | 0.0 | 0.00 | 0.08 | 0.00 | 35 | 1016.4 |
| 20260901204705 | 85 | 210 | 0.0 | 0.0 | 0.00 | 0.08 | 0.00 | 34 | 1016.5 |
| 20260901204204 | 85 | 209 | 0.0 | 0.0 | 0.00 | 0.08 | 0.00 | 30 | 1016.5 |
| 20260901203705 | 86 | 98 | 0.0 | 0.0 | 0.00 | 0.08 | 0.00 | 33 | 1016.6 |
| 20260901203206 | 86 | 98 | 0.0 | 0.0 | 0.00 | 0.08 | 0.00 | 32 | 1016.6 |
| 20260901202700 | 85 | 98 | 0.0 | 0.0 | 0.00 | 0.08 | 0.00 | 34 | 1016.6 |
| 20260901202200 | 85 | 91 | 0.0 | 0.0 | 0.00 | 0.08 | 0.00 | 35 | 1016.6 |
| 20260901200700 | 84 | 146 | 0.0 | 0.0 | 0.00 | 0.08 | 0.00 | 33 | 1016.9 |
| 20260901200200 | 85 | 148 | 0.0 | 0.0 | 0.00 | 0.08 | 0.00 | 32 | 1016.9 |
| 20260901195200 | 83 | 192 | 0.0 | 0.0 | 0.00 | 0.08 | 0.00 | 37 | 1017.1 |
| 20260901194700 | 83 | 192 | 0.0 | 0.0 | 0.00 | 0.08 | 0.00 | 37 | 1017.1 |
| 20260901194156 | 82 | 192 | 0.0 | 0.0 | 0.00 | 0.08 | 0.00 | 38 | 1017.1 |
| 20260901193656 | 82 | 192 | 0.0 | 0.0 | 0.00 | 0.08 | 0.00 | 39 | 1017.2 |
| 20260901193157 | 82 | 195 | 0.0 | 0.0 | 0.00 | 0.08 | 0.00 | 40 | 1017.2 |
| 20260901192654 | 81 | 195 | 0.0 | 0.0 | 0.00 | 0.08 | 0.00 | 39 | 1017.3 |
| 20260901192154 | 81 | 182 | 0.0 | 0.0 | 0.00 | 0.08 | 0.00 | 40 | 1017.3 |
| 20260901191652 | 80 | 184 | 0.0 | 0.0 | 0.00 | 0.08 | 0.00 | 40 | 1017.4 |
| 20260901190650 | 80 | 184 | 0.0 | 0.0 | 0.00 | 0.08 | 0.00 | 42 | 1017.5 |
| 20260901190149 | 80 | 184 | 0.0 | 0.0 | 0.00 | 0.08 | 0.00 | 43 | 1017.5 |
| 20260901185648 | 79 | 182 | 0.0 | 0.0 | 0.00 | 0.08 | 0.00 | 40 | 1017.8 |
| 20260901184642 | 79 | 193 | 0.0 | 2.0 | 0.00 | 0.08 | 0.00 | 46 | 1017.8 |
| 20260901184140 | 79 | 193 | 0.0 | 0.0 | 0.00 | 0.08 | 0.00 | 48 | 1017.8 |
| 20260901183640 | 78 | 186 | 0.0 | 0.0 | 0.00 | 0.08 | 0.00 | 48 | 1018.0 |
| 20260901183140 | 78 | 229 | 0.0 | 0.0 | 0.00 | 0.08 | 0.00 | 51 | 1018.0 |
| 20260901182638 | 78 | 229 | 0.0 | 0.0 | 0.00 | 0.08 | 0.00 | 49 | 1018.0 |
| 20260901182141 | 78 | 228 | 0.0 | 0.0 | 0.00 | 0.08 | 0.00 | 51 | 1018.1 |
| 20260901181635 | 77 | 228 | 0.0 | 0.0 | 0.00 | 0.08 | 0.00 | 53 | 1018.2 |
| 20260901181128 | 77 | 229 | 0.0 | 0.0 | 0.00 | 0.08 | 0.00 | 53 | 1018.3 |
| 20260901180116 | 76 | 231 | 0.0 | 0.0 | 0.00 | 0.08 | 0.00 | 55 | 1018.6 |
| 20260901175612 | 76 | 231 | 0.0 | 0.0 | 0.00 | 0.08 | 0.00 | 56 | 1018.6 |
| 20260901175105 | 75 | 225 | 0.0 | 0.0 | 0.00 | 0.08 | 0.00 | 58 | 1018.6 |
| 20260901174053 | 74 | 225 | 0.0 | 0.0 | 0.00 | 0.08 | 0.00 | 60 | 1018.7 |
| 20260901173546 | 74 | 225 | 0.0 | 0.0 | 0.00 | 0.08 | 0.00 | 63 | 1018.8 |
| 20260901173040 | 74 | 225 | 0.0 | 0.0 | 0.00 | 0.08 | 0.00 | 63 | 1018.8 |
| 20260901172028 | 73 | 235 | 0.0 | 0.0 | 0.00 | 0.08 | 0.00 | 66 | 1018.8 |
| 20260901171522 | 72 | 235 | 0.0 | 1.0 | 0.00 | 0.08 | 0.00 | 67 | 1018.9 |
| 20260901171018 | 72 | 235 | 0.0 | 1.0 | 0.00 | 0.08 | 0.00 | 67 | 1019.0 |
| 20260901170512 | 71 | 237 | 0.0 | 1.0 | 0.00 | 0.08 | 0.00 | 70 | 1019.0 |
| 20260901170005 | 71 | 237 | 0.0 | 2.0 | 0.00 | 0.08 | 0.00 | 72 | 1018.9 |
| 20260901165458 | 70 | 237 | 0.0 | 2.0 | 0.00 | 0.08 | 0.00 | 72 | 1019.0 |
| 20260901164446 | 69 | 249 | 0.0 | 1.0 | 0.00 | 0.08 | 0.00 | 76 | 1019.2 |
| 20260901163941 | 69 | 249 | 0.0 | 1.0 | 0.00 | 0.08 | 0.00 | 76 | 1019.2 |
| 20260901163435 | 69 | 249 | 0.0 | 3.0 | 0.00 | 0.08 | 0.00 | 77 | 1019.2 |
| 20260901162929 | 69 | 249 | 0.0 | 3.0 | 0.00 | 0.08 | 0.00 | 78 | 1019.2 |
| 20260901161916 | 68 | 250 | 0.0 | 0.0 | 0.00 | 0.08 | 0.00 | 79 | 1019.0 |
| 20260901160905 | 68 | 250 | 0.0 | 0.0 | 0.00 | 0.08 | 0.00 | 81 | 1019.2 |
| 20260901160359 | 68 | 250 | 0.0 | 0.0 | 0.00 | 0.08 | 0.00 | 81 | 1019.2 |
| 20260901155852 | 67 | 250 | 0.0 | 0.0 | 0.00 | 0.08 | 0.00 | 82 | 1019.2 |
| 20260901155346 | 67 | 250 | 0.0 | 1.0 | 0.00 | 0.08 | 0.00 | 82 | 1019.2 |
| 20260901154842 | 67 | 250 | 0.0 | 3.0 | 0.00 | 0.08 | 0.00 | 82 | 1019.2 |
| 20260901154334 | 66 | 250 | 0.0 | 3.0 | 0.00 | 0.08 | 0.00 | 82 | 1019.0 |
| 20260901153830 | 66 | 247 | 0.0 | 0.0 | 0.00 | 0.08 | 0.00 | 83 | 1019.2 |
| 20260901152310 | 65 | 247 | 0.0 | 0.0 | 0.00 | 0.08 | 0.00 | 84 | 1019.0 |
| 20260901151804 | 65 | 247 | 0.0 | 0.0 | 0.00 | 0.08 | 0.00 | 84 | 1018.9 |
| 20260901151258 | 64 | 247 | 0.0 | 0.0 | 0.00 | 0.08 | 0.00 | 85 | 1018.9 |
| 20260901150753 | 64 | 247 | 0.0 | 0.0 | 0.00 | 0.08 | 0.00 | 84 | 1018.9 |
| 20260901150246 | 64 | 247 | 0.0 | 0.0 | 0.00 | 0.08 | 0.00 | 84 | 1018.9 |
| 20260901145741 | 64 | 247 | 0.0 | 0.0 | 0.00 | 0.08 | 0.00 | 85 | 1018.9 |
| 20260901145234 | 63 | 247 | 0.0 | 0.0 | 0.00 | 0.08 | 0.00 | 85 | 1018.9 |
| 20260901144222 | 63 | 247 | 0.0 | 0.0 | 0.00 | 0.08 | 0.00 | 85 | 1018.9 |
| 20260901143210 | 63 | 247 | 0.0 | 1.0 | 0.00 | 0.08 | 0.00 | 85 | 1018.9 |
| 20260901142704 | 62 | 247 | 0.0 | 2.0 | 0.00 | 0.08 | 0.00 | 85 | 1018.9 |
| 20260901141653 | 62 | 246 | 0.0 | 1.0 | 0.00 | 0.08 | 0.00 | 85 | 1018.9 |
| 20260901141146 | 62 | 246 | 0.0 | 1.0 | 0.00 | 0.08 | 0.00 | 86 | 1018.9 |
| 20260901140641 | 62 | 246 | 0.0 | 0.0 | 0.00 | 0.08 | 0.00 | 86 | 1018.8 |
| 20260901140135 | 62 | 246 | 0.0 | 0.0 | 0.00 | 0.08 | 0.00 | 86 | 1018.9 |
| 20260901135629 | 61 | 246 | 0.0 | 0.0 | 0.00 | 0.08 | 0.00 | 86 | 1018.9 |
| 20260901135124 | 61 | 246 | 0.0 | 0.0 | 0.00 | 0.08 | 0.00 | 86 | 1018.7 |
| 20260901134616 | 61 | 246 | 0.0 | 0.0 | 0.00 | 0.08 | 0.00 | 86 | 1018.8 |
| 20260901134111 | 61 | 246 | 0.0 | 0.0 | 0.00 | 0.08 | 0.00 | 86 | 1018.8 |
| 20260901133604 | 61 | 246 | 0.0 | 0.0 | 0.00 | 0.08 | 0.00 | 86 | 1018.9 |
| 20260901133059 | 61 | 246 | 0.0 | 0.0 | 0.00 | 0.08 | 0.00 | 86 | 1018.8 |
| 20260901132553 | 61 | 246 | 0.0 | 0.0 | 0.00 | 0.08 | 0.00 | 86 | 1018.8 |
| 20260901132046 | 61 | 246 | 0.0 | 0.0 | 0.00 | 0.08 | 0.00 | 86 | 1018.8 |
| 20260901131540 | 61 | 246 | 0.0 | 0.0 | 0.00 | 0.08 | 0.00 | 86 | 1018.6 |
| 20260901131035 | 61 | 246 | 0.0 | 0.0 | 0.00 | 0.08 | 0.00 | 86 | 1018.5 |
| 20260901130528 | 61 | 246 | 0.0 | 0.0 | 0.00 | 0.08 | 0.00 | 86 | 1018.3 |
| 20260901130024 | 61 | 246 | 0.0 | 0.0 | 0.00 | 0.08 | 0.00 | 86 | 1018.3 |
| 20260901125516 | 61 | 246 | 0.0 | 0.0 | 0.00 | 0.08 | 0.00 | 86 | 1018.2 |
| 20260901125011 | 61 | 246 | 0.0 | 0.0 | 0.00 | 0.08 | 0.00 | 86 | 1018.1 |
| 20260901124514 | 61 | 246 | 0.0 | 0.0 | 0.00 | 0.08 | 0.00 | 86 | 1018.1 |
| 20260901123958 | 61 | 246 | 0.0 | 0.0 | 0.00 | 0.08 | 0.00 | 86 | 1018.0 |
| 20260901123454 | 61 | 246 | 0.0 | 0.0 | 0.00 | 0.08 | 0.00 | 86 | 1017.8 |
| 20260901122948 | 61 | 246 | 0.0 | 0.0 | 0.00 | 0.08 | 0.00 | 86 | 1017.8 |
| 20260901122446 | 61 | 246 | 0.0 | 0.0 | 0.00 | 0.08 | 0.00 | 86 | 1017.8 |
| 20260901121445 | 61 | 246 | 0.0 | 0.0 | 0.00 | 0.08 | 0.00 | 86 | 1017.8 |
| 20260901120941 | 61 | 246 | 0.0 | 0.0 | 0.00 | 0.08 | 0.00 | 87 | 1017.8 |
| 20260901115941 | 61 | 246 | 0.0 | 0.0 | 0.00 | 0.08 | 0.00 | 87 | 1017.9 |
| 20260901114444 | 61 | 246 | 0.0 | 0.0 | 0.00 | 0.08 | 0.00 | 87 | 1017.6 |
| 20260901113943 | 61 | 246 | 0.0 | 0.0 | 0.00 | 0.08 | 0.00 | 87 | 1017.6 |
| 20260901113444 | 61 | 246 | 0.0 | 0.0 | 0.00 | 0.08 | 0.00 | 87 | 1017.8 |
| 20260901112943 | 61 | 246 | 0.0 | 0.0 | 0.00 | 0.08 | 0.00 | 87 | 1017.8 |
| 20260901112444 | 61 | 247 | 0.0 | 2.0 | 0.00 | 0.08 | 0.00 | 87 | 1017.6 |
| 20260901111941 | 61 | 247 | 0.0 | 2.0 | 0.00 | 0.08 | 0.00 | 87 | 1017.8 |
| 20260901111443 | 61 | 246 | 0.0 | 2.0 | 0.00 | 0.08 | 0.00 | 87 | 1017.6 |
| 20260901110942 | 61 | 245 | 0.0 | 0.0 | 0.00 | 0.08 | 0.00 | 87 | 1017.8 |
| 20260901110443 | 61 | 245 | 0.0 | 0.0 | 0.00 | 0.08 | 0.00 | 87 | 1017.9 |
| 20260901105942 | 61 | 245 | 0.0 | 0.0 | 0.00 | 0.08 | 0.00 | 87 | 1017.9 |
| 20260901105443 | 61 | 245 | 0.0 | 1.0 | 0.00 | 0.08 | 0.00 | 87 | 1017.8 |
| 20260901104942 | 61 | 245 | 0.0 | 1.0 | 0.00 | 0.08 | 0.00 | 87 | 1017.9 |
| 20260901104443 | 61 | 245 | 0.0 | 1.0 | 0.00 | 0.08 | 0.00 | 87 | 1018.0 |
| 20260901103941 | 61 | 245 | 0.0 | 1.0 | 0.00 | 0.08 | 0.00 | 87 | 1018.0 |
| 20260901103443 | 61 | 249 | 0.0 | 0.0 | 0.00 | 0.08 | 0.00 | 87 | 1018.2 |
| 20260901102447 | 62 | 249 | 0.0 | 1.0 | 0.00 | 0.08 | 0.00 | 87 | 1018.5 |
| 20260901101944 | 62 | 249 | 0.0 | 0.0 | 0.00 | 0.08 | 0.00 | 87 | 1018.3 |
| 20260901101444 | 62 | 249 | 0.0 | 0.0 | 0.00 | 0.08 | 0.00 | 87 | 1018.5 |
| 20260901100944 | 62 | 249 | 0.0 | 0.0 | 0.00 | 0.08 | 0.00 | 87 | 1018.5 |
| 20260901100444 | 62 | 249 | 0.0 | 1.0 | 0.00 | 0.08 | 0.00 | 87 | 1018.6 |
| 20260901095936 | 62 | 249 | 0.0 | 1.0 | 0.00 | 0.08 | 0.00 | 87 | 1018.8 |
| 20260901095433 | 62 | 249 | 0.0 | 1.0 | 0.00 | 0.08 | 0.00 | 87 | 1018.9 |
| 20260901094931 | 62 | 249 | 0.0 | 2.0 | 0.00 | 0.08 | 0.00 | 87 | 1018.8 |
| 20260901094430 | 62 | 249 | 0.0 | 2.0 | 0.00 | 0.08 | 0.00 | 87 | 1018.8 |
| 20260901093927 | 62 | 249 | 0.0 | 1.0 | 0.00 | 0.08 | 0.00 | 87 | 1018.9 |
| 20260901093426 | 62 | 249 | 0.0 | 1.0 | 0.00 | 0.08 | 0.00 | 87 | 1018.8 |
| 20260901092925 | 62 | 249 | 0.0 | 1.0 | 0.00 | 0.08 | 0.00 | 87 | 1018.9 |
| 20260901091927 | 62 | 249 | 0.0 | 1.0 | 0.00 | 0.08 | 0.00 | 87 | 1018.9 |
| 20260901091425 | 63 | 249 | 0.0 | 1.0 | 0.00 | 0.08 | 0.00 | 87 | 1018.9 |
| 20260901090924 | 63 | 249 | 0.0 | 1.0 | 0.00 | 0.08 | 0.00 | 87 | 1018.9 |
| 20260901090422 | 63 | 249 | 0.0 | 1.0 | 0.00 | 0.08 | 0.00 | 87 | 1018.9 |
| 20260901085921 | 63 | 249 | 0.0 | 0.0 | 0.00 | 0.08 | 0.00 | 87 | 1018.9 |
| 20260901085424 | 63 | 249 | 0.0 | 0.0 | 0.00 | 0.08 | 0.00 | 87 | 1018.9 |
| 20260901084920 | 63 | 249 | 0.0 | 0.0 | 0.00 | 0.08 | 0.00 | 87 | 1018.9 |
| 20260901084419 | 63 | 249 | 0.0 | 0.0 | 0.00 | 0.08 | 0.00 | 87 | 1019.0 |
| 20260901083919 | 63 | 249 | 0.0 | 0.0 | 0.00 | 0.08 | 0.00 | 87 | 1019.0 |
| 20260901083418 | 63 | 249 | 0.0 | 0.0 | 0.00 | 0.08 | 0.00 | 87 | 1019.0 |
| 20260901082917 | 63 | 249 | 0.0 | 0.0 | 0.00 | 0.08 | 0.00 | 87 | 1019.2 |
| 20260901081915 | 63 | 249 | 0.0 | 0.0 | 0.00 | 0.08 | 0.00 | 87 | 1019.3 |
| 20260901081410 | 63 | 249 | 0.0 | 0.0 | 0.00 | 0.08 | 0.00 | 87 | 1019.3 |
| 20260901080903 | 63 | 249 | 0.0 | 0.0 | 0.00 | 0.08 | 0.00 | 87 | 1019.4 |
| 20260901080357 | 63 | 249 | 0.0 | 0.0 | 0.00 | 0.08 | 0.00 | 87 | 1019.3 |
| 20260901075850 | 63 | 249 | 0.0 | 0.0 | 0.00 | 0.08 | 0.00 | 87 | 1019.4 |
| 20260901075346 | 63 | 249 | 0.0 | 0.0 | 0.00 | 0.08 | 0.00 | 87 | 1019.4 |
| 20260901074838 | 63 | 249 | 0.0 | 0.0 | 0.00 | 0.08 | 0.00 | 87 | 1019.4 |
| 20260901074333 | 63 | 249 | 0.0 | 0.0 | 0.00 | 0.08 | 0.00 | 87 | 1019.4 |
| 20260901073826 | 63 | 249 | 0.0 | 0.0 | 0.00 | 0.08 | 0.00 | 87 | 1019.6 |
| 20260901073320 | 63 | 249 | 0.0 | 0.0 | 0.00 | 0.08 | 0.00 | 87 | 1019.7 |
| 20260901072310 | 63 | 249 | 0.0 | 0.0 | 0.00 | 0.08 | 0.00 | 86 | 1019.7 |
| 20260901071803 | 63 | 249 | 0.0 | 0.0 | 0.00 | 0.08 | 0.00 | 86 | 1020.2 |
| 20260901071257 | 63 | 249 | 0.0 | 0.0 | 0.00 | 0.08 | 0.00 | 86 | 1020.2 |
| 20260901070245 | 63 | 249 | 0.0 | 0.0 | 0.00 | 0.08 | 0.00 | 86 | 1020.1 |
| 20260901065739 | 63 | 249 | 0.0 | 0.0 | 0.00 | 0.08 | 0.00 | 86 | 1020.0 |
| 20260901065232 | 63 | 249 | 0.0 | 0.0 | 0.00 | 0.08 | 0.00 | 86 | 1020.1 |
| 20260901064728 | 63 | 249 | 0.0 | 0.0 | 0.00 | 0.08 | 0.00 | 86 | 1020.1 |
| 20260901063209 | 63 | 249 | 0.0 | 0.0 | 0.00 | 0.08 | 0.00 | 86 | 1020.0 |
| 20260901062703 | 63 | 249 | 0.0 | 0.0 | 0.00 | 0.08 | 0.00 | 86 | 1020.3 |
| 20260901062157 | 63 | 249 | 0.0 | 0.0 | 0.00 | 0.08 | 0.00 | 85 | 1020.2 |
| 20260901061145 | 63 | 249 | 0.0 | 0.0 | 0.00 | 0.08 | 0.00 | 85 | 1020.1 |
| 20260901060639 | 63 | 249 | 0.0 | 0.0 | 0.00 | 0.08 | 0.00 | 85 | 1020.1 |
| 20260901060134 | 63 | 249 | 0.0 | 0.0 | 0.00 | 0.08 | 0.00 | 85 | 1020.0 |
| 20260901055629 | 63 | 249 | 0.0 | 0.0 | 0.00 | 0.08 | 0.08 | 85 | 1019.7 |
| 20260901055130 | 63 | 249 | 0.0 | 0.0 | 0.00 | 0.08 | 0.08 | 84 | 1019.5 |
| 20260901054630 | 63 | 249 | 0.0 | 0.0 | 0.00 | 0.08 | 0.08 | 84 | 1019.4 |
| 20260901054129 | 63 | 249 | 0.0 | 0.0 | 0.00 | 0.08 | 0.08 | 84 | 1019.6 |
| 20260901053629 | 63 | 249 | 0.0 | 0.0 | 0.00 | 0.08 | 0.08 | 84 | 1019.9 |
| 20260901053129 | 63 | 249 | 0.0 | 0.0 | 0.00 | 0.08 | 0.08 | 84 | 1019.6 |
| 20260901052629 | 63 | 249 | 0.0 | 0.0 | 0.00 | 0.08 | 0.08 | 83 | 1019.7 |
| 20260901052129 | 63 | 249 | 0.0 | 0.0 | 0.00 | 0.08 | 0.08 | 83 | 1019.7 |
| 20260901051123 | 63 | 249 | 0.0 | 0.0 | 0.00 | 0.08 | 0.08 | 83 | 1019.6 |
| 20260901050617 | 63 | 249 | 0.0 | 0.0 | 0.00 | 0.08 | 0.08 | 83 | 1019.5 |
| 20260901050112 | 63 | 249 | 0.0 | 0.0 | 0.00 | 0.08 | 0.08 | 83 | 1019.5 |
| 20260901045612 | 63 | 249 | 0.0 | 0.0 | 0.00 | 0.08 | 0.08 | 83 | 1019.6 |
| 20260901045109 | 64 | 249 | 0.0 | 1.0 | 0.00 | 0.08 | 0.08 | 83 | 1019.5 |
| 20260901044609 | 64 | 249 | 0.0 | 1.0 | 0.00 | 0.08 | 0.08 | 82 | 1019.5 |
| 20260901044110 | 64 | 249 | 0.0 | 1.0 | 0.00 | 0.08 | 0.08 | 82 | 1019.5 |
| 20260901043610 | 64 | 249 | 0.0 | 1.0 | 0.01 | 0.08 | 0.08 | 82 | 1019.4 |
| 20260901043108 | 64 | 249 | 0.0 | 1.0 | 0.01 | 0.08 | 0.08 | 82 | 1019.5 |
| 20260901042607 | 64 | 98 | 0.0 | 0.0 | 0.01 | 0.08 | 0.08 | 81 | 1019.3 |
| 20260901042104 | 64 | 98 | 0.0 | 0.0 | 0.02 | 0.08 | 0.08 | 81 | 1019.2 |
| 20260901041604 | 64 | 98 | 0.0 | 2.0 | 0.02 | 0.08 | 0.08 | 81 | 1019.0 |
| 20260901041103 | 65 | 98 | 0.0 | 2.0 | 0.03 | 0.08 | 0.08 | 81 | 1018.9 |
| 20260901040603 | 65 | 136 | 0.0 | 1.0 | 0.03 | 0.08 | 0.08 | 80 | 1019.2 |
| 20260901035600 | 65 | 236 | 0.0 | 0.0 | 0.03 | 0.08 | 0.08 | 79 | 1019.7 |
| 20260901035057 | 65 | 236 | 0.0 | 2.0 | 0.03 | 0.08 | 0.08 | 79 | 1019.9 |
| 20260901034557 | 65 | 236 | 0.0 | 2.0 | 0.03 | 0.08 | 0.08 | 79 | 1020.1 |
| 20260901034057 | 65 | 236 | 0.0 | 1.0 | 0.03 | 0.08 | 0.08 | 78 | 1020.3 |
| 20260901033555 | 66 | 236 | 1.0 | 4.0 | 0.02 | 0.07 | 0.07 | 78 | 1020.4 |
| 20260901033053 | 66 | 235 | 1.0 | 4.0 | 0.02 | 0.07 | 0.07 | 77 | 1020.2 |
| 20260901032555 | 66 | 343 | 1.0 | 4.0 | 0.02 | 0.07 | 0.07 | 77 | 1019.7 |
| 20260901032049 | 66 | 253 | 2.0 | 8.0 | 0.01 | 0.06 | 0.06 | 76 | 1020.6 |
| 20260901031543 | 67 | 246 | 3.0 | 8.0 | 0.01 | 0.06 | 0.06 | 75 | 1020.8 |
| 20260901030532 | 67 | 242 | 4.0 | 11.0 | 0.01 | 0.05 | 0.05 | 73 | 1021.0 |
| 20260901030025 | 67 | 257 | 4.0 | 11.0 | 0.03 | 0.05 | 0.05 | 72 | 1021.0 |
| 20260901025519 | 67 | 243 | 3.0 | 11.0 | 0.03 | 0.05 | 0.05 | 72 | 1020.9 |
| 20260901025013 | 67 | 229 | 2.0 | 11.0 | 0.03 | 0.05 | 0.05 | 72 | 1020.6 |
| 20260901024507 | 67 | 234 | 2.0 | 11.0 | 0.04 | 0.05 | 0.05 | 72 | 1020.2 |
| 20260901023455 | 68 | 243 | 1.0 | 7.0 | 0.04 | 0.05 | 0.05 | 73 | 1019.7 |
| 20260901022949 | 68 | 338 | 0.0 | 0.0 | 0.04 | 0.05 | 0.05 | 71 | 1019.2 |
| 20260901022444 | 69 | 338 | 0.0 | 1.0 | 0.05 | 0.05 | 0.05 | 71 | 1018.8 |
| 20260901021938 | 69 | 338 | 0.0 | 0.0 | 0.05 | 0.05 | 0.05 | 70 | 1018.6 |
| 20260901020925 | 70 | 337 | 0.0 | 0.0 | 0.05 | 0.05 | 0.05 | 67 | 1018.5 |
| 20260901020422 | 70 | 338 | 0.0 | 0.0 | 0.03 | 0.03 | 0.03 | 66 | 1018.3 |
| 20260901015915 | 70 | 338 | 0.0 | 0.0 | 0.02 | 0.02 | 0.02 | 64 | 1018.5 |
| 20260901015408 | 71 | 338 | 0.0 | 0.0 | 0.02 | 0.02 | 0.02 | 63 | 1018.5 |
| 20260901014903 | 71 | 338 | 0.0 | 0.0 | 0.02 | 0.02 | 0.02 | 62 | 1018.2 |
| 20260901014355 | 72 | 338 | 0.0 | 4.0 | 0.01 | 0.01 | 0.01 | 60 | 1018.1 |
| 20260901013849 | 72 | 348 | 1.0 | 5.0 | 0.01 | 0.01 | 0.01 | 59 | 1018.0 |
| 20260901013343 | 74 | 337 | 1.0 | 10.0 | 0.01 | 0.01 | 0.01 | 56 | 1018.0 |
| 20260901012838 | 75 | 199 | 1.0 | 10.0 | 0.00 | 0.00 | 0.00 | 53 | 1018.1 |
| 20260901012333 | 77 | 348 | 0.0 | 3.0 | 0.00 | 0.00 | 0.00 | 51 | 1018.1 |
| 20260901011826 | 79 | 318 | 0.0 | 3.0 | 0.00 | 0.00 | 0.00 | 47 | 1017.9 |
| 20260901011320 | 81 | 332 | 0.0 | 2.0 | 0.00 | 0.00 | 0.00 | 40 | 1017.9 |
| 20260901010814 | 81 | 38 | 0.0 | 1.0 | 0.00 | 0.00 | 0.00 | 31 | 1017.9 |
| 20260901010310 | 82 | 123 | 0.0 | 0.0 | 0.00 | 0.00 | 0.00 | 31 | 1017.2 |
| 20260901005801 | 82 | 177 | 0.0 | 0.0 | 0.00 | 0.00 | 0.00 | 30 | 1017.1 |
| 20260901005255 | 82 | 177 | 0.0 | 0.0 | 0.00 | 0.00 | 0.00 | 31 | 1016.9 |
| 20260901004750 | 82 | 177 | 0.0 | 0.0 | 0.00 | 0.00 | 0.00 | 30 | 1016.9 |
| 20260901004243 | 82 | 187 | 0.0 | 0.0 | 0.00 | 0.00 | 0.00 | 31 | 1016.9 |
| 20260901003737 | 82 | 123 | 0.0 | 0.0 | 0.00 | 0.00 | 0.00 | 32 | 1017.1 |
| 20260901002725 | 83 | 84 | 0.0 | 0.0 | 0.00 | 0.00 | 0.00 | 32 | 1017.1 |
| 20260901002220 | 83 | 125 | 0.0 | 0.0 | 0.00 | 0.00 | 0.00 | 31 | 1017.1 |
| 20260901001714 | 83 | 125 | 0.0 | 0.0 | 0.00 | 0.00 | 0.00 | 31 | 1016.9 |
| 20260901001207 | 84 | 125 | 0.0 | 0.0 | 0.00 | 0.00 | 0.00 | 31 | 1017.1 |
| 20260901000703 | 84 | 125 | 0.0 | 1.0 | 0.00 | 0.00 | 0.00 | 30 | 1017.2 |
| 20260901000157 | 84 | 144 | 0.0 | 1.0 | 0.00 | 0.00 | 0.00 | 30 | 1017.1 |
| 20260831235651 | 85 | 134 | 0.0 | 0.0 | 0.00 | 0.00 | 0.00 | 30 | 1017.1 |
| 20260831235144 | 85 | 114 | 0.0 | 0.0 | 0.00 | 0.00 | 0.00 | 30 | 1017.1 |
| 20260831234637 | 85 | 114 | 0.0 | 0.0 | 0.00 | 0.00 | 0.00 | 30 | 1017.2 |
| 20260831234132 | 85 | 111 | 0.0 | 0.0 | 0.00 | 0.00 | 0.00 | 29 | 1017.2 |
| 20260831233626 | 86 | 98 | 0.0 | 0.0 | 0.00 | 0.00 | 0.00 | 31 | 1017.2 |
| 20260831233119 | 85 | 99 | 0.0 | 0.0 | 0.00 | 0.00 | 0.00 | 31 | 1017.1 |
| 20260831232613 | 85 | 99 | 0.0 | 0.0 | 0.00 | 0.00 | 0.00 | 31 | 1017.1 |
| 20260831232107 | 86 | 100 | 0.0 | 1.0 | 0.00 | 0.00 | 0.00 | 30 | 1017.1 |
| 20260831231601 | 86 | 173 | 0.0 | 1.0 | 0.00 | 0.00 | 0.00 | 30 | 1017.1 |
| 20260831231057 | 87 | 152 | 0.0 | 0.0 | 0.00 | 0.00 | 0.00 | 31 | 1017.1 |
| 20260831230550 | 87 | 152 | 0.0 | 0.0 | 0.00 | 0.00 | 0.00 | 31 | 1017.2 |
| 20260831230043 | 87 | 161 | 0.0 | 1.0 | 0.00 | 0.00 | 0.00 | 32 | 1017.2 |
| 20260831225538 | 86 | 159 | 0.0 | 1.0 | 0.00 | 0.00 | 0.00 | 32 | 1017.3 |